Wind_Speed
11 10 8 8 9 12 13 12 11 10 9 8 6 5 6 6 10 15 17 15 15 15 16 15 15 16 17 17 15 13 11 10 8 7 6 4 2 1 1 1 1 1 1 1 1 2 2 3 3 3 2 1 1 2 2 2 3 3 3 2 3 4 3 2 2 0 1 2 3 4 5 6 7 8 9 10 12 14 16 18 19 19 18 16 15
12 11 10 8 9 11 13 14 13 11 10 9 7 5 4 4 8 15 17 15 14 14 14 14 14 15 16 17 16 15 13 12 10 9 8 6 4 3 3 3 2 2 2 1 1 1 1 2 2 3 3 2 2 2 1 1 2 3 4 4 3 4 4 3 3 2 1 1 2 3 4 5 6 6 8 9 10 12 14 16 17 18 17 16 15
12 13 12 9 8 11 13 14 14 12 11 10 8 5 4 3 7 13 15 14 13 12 13 12 13 14 15 17 17 16 15 13 12 11 10 8 6 6 5 5 4 4 3 3 2 1 1 2 2 2 2 3 3 2 2 1 1 3 4 5 5 4 5 4 4 4 2 1 1 1 2 3 4 5 6 7 8 10 11 14 16 16 16 16 15
11 13 11 6 6 10 13 15 15 14 12 12 10 7 5 3 7 12 13 13 12 12 11 11 11 13 14 15 17 18 17 16 15 13 12 11 9 8 7 7 6 5 4 3 3 2 2 3 3 3 3 3 3 2 1 1 1 1 3 5 6 6 6 5 5 4 4 3 2 1 1 2 3 3 4 5 6 7 9 11 13 15 15 15 15
12 12 10 7 6 8 10 12 15 16 13 12 10 8 7 4 8 12 12 12 12 12 12 11 11 13 14 14 16 18 19 19 18 16 14 13 11 9 8 8 7 6 5 4 4 3 3 3 4 4 4 5 4 2 1 1 1 1 2 3 6 7 7 7 6 5 5 4 3 3 2 1 1 1 2 3 4 6 7 9 11 13 14 15 14
12 12 10 8 7 7 8 9 13 16 14 13 12 10 9 7 9 12 12 13 13 12 12 12 12 13 14 15 16 18 20 20 19 18 16 14 12 10 9 9 8 7 6 5 5 4 4 3 4 5 5 6 7 5 3 3 2 2 2 2 4 7 8 8 7 6 6 6 5 4 3 2 2 1 1 1 2 3 5 7 9 11 13 13 14
11 11 9 8 7 8 9 8 10 14 15 15 13 12 12 10 11 12 13 14 14 14 13 13 13 13 13 14 16 18 19 20 19 17 15 12 11 11 10 9 9 8 8 7 7 6 5 4 4 4 5 6 7 6 4 3 3 3 3 2 2 5 8 9 8 7 7 8 7 6 5 4 3 3 2 1 1 1 3 5 7 9 11 12 12
10 10 9 8 7 9 10 9 10 13 15 16 15 13 13 14 14 14 15 16 16 15 14 13 13 13 13 13 14 16 17 17 16 14 12 11 10 10 10 9 9 9 9 9 9 8 7 6 5 5 4 4 5 5 4 4 4 5 5 4 2 1 4 7 9 8 7 8 9 9 7 5 5 4 4 3 2 1 1 3 5 7 9 10 11
9 10 9 8 8 9 10 10 11 13 15 16 16 15 15 17 17 16 17 17 17 16 15 14 13 13 13 13 14 14 14 13 12 10 9 8 7 7 7 8 8 8 8 8 8 9 9 8 7 6 5 3 3 4 4 4 3 5 7 5 4 4 2 4 7 9 8 8 9 9 8 7 6 5 5 4 3 2 1 1 3 5 7 9 9
7 8 8 7 7 8 9 10 11 12 14 15 15 16 17 18 18 18 17 18 18 17 16 16 15 14 14 13 13 14 13 12 11 10 9 8 7 6 6 6 6 6 7 7 8 9 9 9 9 8 7 4 3 3 3 4 4 5 6 5 4 5 6 5 5 8 8 8 9 9 8 8 7 6 6 5 5 4 3 2 3 4 6 7 8
5 6 6 6 7 7 8 10 11 12 12 13 14 15 16 18 19 18 18 19 19 17 16 16 16 16 16 15 14 15 15 14 13 12 11 10 10 9 8 7 6 6 6 6 7 8 9 10 10 10 9 7 5 4 3 3 4 5 6 6 5 6 8 8 8 6 9 9 10 8 6 7 8 6 6 6 6 5 4 4 3 4 5 6 7
8 7 7 6 7 7 7 9 10 11 11 11 12 14 14 15 16 17 18 20 20 18 15 13 15 15 15 14 13 14 16 16 16 14 13 12 11 11 10 9 8 7 6 6 6 7 8 10 11 11 11 9 8 6 5 4 4 4 5 6 5 6 8 10 11 8 7 9 10 10 7 6 8 7 6 7 7 6 6 5 5 5 5 6 7
10 9 8 7 7 7 7 8 9 9 9 10 10 13 14 13 13 13 15 18 19 17 13 10 10 11 10 10 10 12 15 17 17 16 14 13 12 12 11 10 9 8 7 7 7 7 8 9 10 11 12 11 10 8 7 6 4 4 5 6 5 6 7 9 11 10 7 8 10 12 9 6 6 7 6 6 7 7 7 6 6 6 6 6 7
7 8 8 8 7 7 7 7 7 6 6 7 7 9 11 12 12 11 12 14 15 14 11 8 8 9 9 9 8 9 11 15 18 17 16 14 13 13 12 11 10 9 9 9 9 9 9 9 9 10 11 11 11 10 8 7 5 5 6 8 7 7 7 8 9 9 8 8 10 14 12 9 7 6 6 6 7 8 8 7 7 7 6 7 8
3 4 5 6 6 5 5 5 5 4 3 4 4 4 5 8 9 9 10 11 12 12 11 10 9 9 8 8 8 8 9 12 15 16 16 16 15 14 14 13 12 12 11 11 10 10 10 10 9 9 9 10 10 10 9 7 5 6 7 9 9 8 8 8 8 9 9 8 10 14 15 13 10 8 7 7 7 7 8 8 8 7 7 7 8
1 2 3 4 5 4 4 3 3 3 3 3 3 2 3 5 5 5 7 9 10 11 12 12 10 8 7 7 8 9 9 10 12 12 12 14 15 15 15 15 15 15 14 13 13 12 11 11 11 11 10 10 10 10 10 8 7 7 8 9 9 9 9 9 9 8 9 9 10 13 17 16 14 12 10 8 7 7 7 8 8 8 8 8 8
4 2 2 3 4 5 4 4 3 3 3 3 3 2 3 4 4 4 5 7 9 10 12 12 10 9 9 9 8 7 7 9 9 9 9 11 12 13 14 14 15 15 15 14 14 13 12 12 12 12 11 11 11 11 11 10 10 10 9 9 9 9 9 10 10 9 8 8 9 12 15 18 17 15 13 11 9 9 9 9 9 10 9 9 8
7 5 3 2 3 4 4 4 4 4 3 3 3 3 3 3 3 3 3 4 6 7 9 10 10 10 11 11 11 10 10 10 9 8 9 10 10 10 11 11 12 13 13 13 13 13 13 13 13 13 13 13 13 13 12 12 12 12 11 10 9 9 9 10 12 11 10 8 8 10 14 18 19 17 16 14 12 11 10 10 10 11 11 11 10
8 7 6 5 4 3 3 3 4 4 3 3 3 3 3 3 3 3 3 4 5 5 6 7 6 7 8 9 11 12 12 11 11 10 9 9 8 9 9 9 9 10 10 11 11 12 11 11 11 11 12 12 13 14 14 14 13 13 12 11 10 9 10 11 12 13 12 10 8 9 12 16 19 19 18 17 16 15 13 12 12 12 13 13 12
9 9 9 8 7 6 6 5 5 4 4 4 3 3 3 3 3 3 4 4 5 5 5 6 5 5 5 6 7 8 8 9 9 8 8 9 9 9 10 12 11 11 11 11 11 12 11 10 10 10 10 10 11 12 14 15 14 13 12 11 11 10 10 11 12 13 14 12 10 10 10 13 18 20 21 19 17 17 17 15 14 14 15 15 14
9 9 9 9 8 8 8 7 7 7 6 6 5 4 2 0 1 1 2 3 4 4 5 6 6 6 6 6 6 6 6 7 7 7 6 8 9 8 10 13 15 15 14 14 15 15 15 14 14 14 15 14 13 12 12 13 14 14 13 12 12 12 12 12 12 13 14 15 14 12 10 12 16 19 21 20 19 19 20 19 18 18 17 17 16
7 8 8 8 7 7 6 6 6 6 6 6 5 4 3 2 2 2 2 3 3 4 5 6 7 7 7 7 7 7 6 6 7 7 6 7 8 9 9 10 12 15 16 16 17 18 18 18 18 19 19 18 18 16 15 14 14 14 14 13 11 11 12 13 13 13 14 15 16 15 13 13 14 17 20 21 21 22 22 21 21 22 21 20 18
6 6 6 6 6 5 4 4 4 4 5 5 5 5 4 4 4 3 3 3 4 5 6 6 7 8 8 8 8 8 8 7 8 8 7 7 8 9 9 9 11 13 14 15 17 18 19 19 19 19 19 19 19 18 17 16 15 15 14 13 11 10 10 11 12 12 13 15 16 17 17 16 16 17 19 21 23 23 23 23 23 22 23 22 20
4 5 5 5 4 4 3 2 2 3 3 4 4 5 5 6 6 6 5 4 3 4 5 7 9 9 10 10 9 9 9 9 10 11 10 9 9 10 10 10 12 13 15 17 18 18 18 19 18 18 18 19 18 18 16 16 17 16 16 16 14 12 12 11 11 12 12 13 14 16 18 19 19 19 20 21 22 23 23 23 22 20 22 24 22
4 4 4 4 4 3 2 1 1 1 1 2 3 4 5 6 6 6 6 6 6 5 4 5 6 8 10 10 11 11 11 11 11 12 13 12 11 11 11 12 14 15 16 18 20 20 20 19 18 17 17 16 15 15 15 15 16 17 19 20 18 17 17 16 15 15 15 15 15 16 18 20 22 22 22 22 22 23 23 24 23 20 21 24 23
5 5 4 4 4 3 2 2 2 1 1 1 2 3 4 5 6 6 7 7 8 8 7 7 6 6 7 9 11 12 13 13 13 13 14 15 14 12 12 15 18 19 17 17 19 20 19 18 18 17 15 14 14 14 15 15 15 15 17 20 22 23 23 22 20 18 19 18 17 17 19 20 23 24 24 24 24 23 24 25 24 21 21 23 24
6 6 6 5 4 4 3 3 3 3 2 1 0 1 3 5 6 7 8 8 9 9 10 9 9 9 8 8 8 10 12 13 14 15 15 16 16 15 14 14 17 19 19 18 20 23 23 21 22 21 16 12 14 15 15 15 15 15 16 19 22 25 25 24 22 21 20 19 17 18 19 20 23 25 25 25 25 24 24 26 25 23 22 22 25
7 7 7 6 6 5 4 4 5 4 4 3 2 2 3 5 7 8 8 9 10 11 11 11 11 11 11 11 10 10 11 12 13 14 15 16 17 17 15 12 13 15 16 18 20 20 21 20 21 22 18 14 15 17 16 15 15 15 16 18 21 23 24 23 22 22 21 20 19 18 19 19 22 25 27 27 27 26 25 27 26 24 22 22 24
8 8 8 8 7 7 6 6 6 6 5 5 4 4 5 6 7 8 9 10 11 11 12 13 13 13 13 13 12 12 13 13 13 14 15 16 16 17 15 12 12 13 14 17 20 17 17 20 19 19 19 20 22 23 20 19 18 17 17 17 18 20 21 21 21 20 20 20 19 19 19 19 21 25 28 29 30 29 26 26 27 26 24 22 23
10 10 9 9 9 9 8 8 8 7 6 6 6 6 6 7 8 9 10 11 12 12 12 13 14 14 15 14 14 14 14 14 14 15 15 15 16 17 17 14 13 14 14 16 22 23 21 23 20 15 18 22 25 27 26 24 23 22 20 20 20 20 20 20 21 21 20 19 18 18 18 19 20 24 28 31 32 31 28 28 28 28 26 24 22
14 12 11 11 10 10 10 10 9 8 7 7 7 7 8 8 8 9 10 11 12 13 13 14 14 14 15 15 16 15 15 14 14 14 14 15 15 16 17 17 15 14 15 16 23 28 26 25 24 21 23 27 27 28 27 26 26 26 24 24 24 24 23 23 23 23 23 22 21 20 19 19 19 22 26 31 34 34 32 31 31 29 27 25 24
17 16 14 13 12 11 12 11 11 10 9 8 8 9 9 10 10 10 10 11 12 14 15 16 17 17 17 17 17 18 18 18 16 15 14 14 14 14 16 17 15 13 14 15 23 31 30 28 30 29 30 31 31 30 29 28 28 27 25 25 26 26 26 26 26 26 25 24 24 24 23 22 20 21 23 25 30 36 36 35 34 31 27 25 24
20 19 17 15 14 13 14 14 13 12 12 11 11 11 11 12 12 12 11 11 12 13 15 17 18 19 19 19 20 20 20 21 20 19 18 17 16 14 14 16 15 12 13 14 21 31 32 29 31 32 31 32 31 31 31 31 30 27 25 24 25 25 25 25 26 28 27 26 26 26 26 25 23 23 22 16 19 29 33 36 38 35 30 26 24
22 21 20 18 17 16 16 16 15 15 14 13 13 13 14 14 14 15 14 13 13 13 15 16 18 18 19 20 20 21 21 21 21 20 20 19 19 17 16 16 13 10 12 14 19 27 32 30 30 31 32 31 31 31 30 31 31 30 27 24 23 24 24 23 24 26 28 28 27 26 27 27 25 25 23 17 16 22 26 31 36 37 34 31 28
24 23 22 20 19 19 19 18 18 17 16 15 15 15 16 16 17 17 17 16 15 15 16 17 18 18 19 20 21 22 22 21 21 20 20 19 19 19 18 18 15 11 10 13 16 21 28 30 29 28 29 30 30 31 30 30 31 30 28 26 24 24 24 23 22 23 26 27 27 27 27 27 26 25 24 22 20 21 24 28 31 34 36 36 35
27 26 24 23 22 22 22 22 21 19 18 17 17 17 18 19 20 19 19 19 18 18 18 19 19 20 21 22 22 22 22 21 21 20 20 20 19 19 19 19 19 17 13 13 15 17 21 26 27 25 25 27 29 30 30 30 30 30 29 28 27 25 25 26 24 23 23 25 26 27 28 28 27 25 24 23 21 22 25 27 28 30 32 35 38
30 28 27 26 26 25 25 24 23 21 20 19 19 20 21 22 22 21 21 20 20 19 20 21 21 22 23 23 22 21 21 21 20 20 19 19 19 20 20 19 19 20 18 16 16 17 19 24 26 23 23 25 27 29 29 30 30 30 29 29 28 27 27 27 27 25 24 24 25 27 28 29 27 25 24 24 24 23 24 26 28 29 29 31 35
33 31 29 29 28 28 27 26 25 23 22 21 21 23 23 23 23 22 22 22 22 21 22 23 23 24 23 23 22 21 20 20 19 19 19 19 19 20 20 21 20 21 22 21 20 22 23 26 28 28 28 27 27 28 28 28 29 30 31 31 29 28 27 27 29 28 26 24 24 26 27 28 27 26 25 25 25 25 24 25 27 29 30 30 31
36 31 30 31 30 29 28 27 27 25 24 24 24 25 24 23 23 23 23 23 22 22 23 24 25 24 23 22 21 20 20 19 19 19 19 19 20 19 19 19 19 20 22 23 23 24 26 27 29 30 31 30 29 29 28 27 28 28 29 29 28 26 26 26 28 29 28 24 22 24 26 27 26 25 25 25 24 25 25 25 26 29 30 30 29
35 33 33 34 32 30 29 28 28 27 26 26 26 25 24 23 23 24 23 23 22 23 24 25 24 24 23 22 21 21 20 20 20 19 19 20 20 19 18 16 15 16 19 21 22 23 24 26 28 29 30 31 31 31 31 30 25 22 22 22 22 24 25 26 27 28 28 26 21 20 23 26 26 25 23 23 24 25 25 24 25 27 28 29 29
35 36 36 34 31 31 31 30 30 29 28 27 26 25 24 23 24 23 23 23 23 23 24 24 24 24 23 23 23 22 22 22 22 21 21 21 21 22 22 20 17 15 15 16 17 18 20 23 25 27 29 30 30 30 32 32 26 20 21 23 24 26 26 26 27 28 28 27 24 21 19 21 24 26 24 23 24 26 26 26 26 26 28 28 28
35 37 37 34 32 33 34 33 32 31 28 26 24 23 23 23 23 22 22 22 22 22 23 23 24 24 24 25 24 24 24 24 24 24 23 23 23 24 24 23 21 20 19 17 16 17 18 20 21 23 25 28 30 30 30 33 30 22 19 20 22 23 23 24 26 27 26 27 29 26 23 20 20 23 25 25 25 26 27 29 29 28 27 26 26
34 37 37 34 33 34 35 33 31 29 26 23 22 22 21 21 21 20 20 20 21 21 22 23 24 25 26 26 26 26 27 26 27 27 26 26 26 26 26 26 25 25 25 23 22 20 19 20 21 20 21 24 26 28 29 31 31 25 19 17 18 19 19 20 21 21 20 22 25 26 26 23 19 19 23 25 25 25 26 27 29 29 29 29 27
34 36 35 33 33 35 34 32 29 25 22 21 20 20 19 19 18 18 18 19 20 21 22 23 24 25 26 27 28 28 28 28 28 28 29 29 29 29 29 29 29 29 29 28 28 27 24 24 24 23 23 22 21 24 27 27 27 26 20 17 17 17 18 19 19 18 18 20 20 22 26 27 22 19 20 22 22 23 23 24 26 28 30 30 29
35 37 34 33 34 35 33 30 26 22 20 19 19 18 18 17 16 16 17 18 20 21 22 24 25 26 27 28 29 29 29 29 29 29 30 31 31 32 32 33 33 33 32 32 31 31 30 29 28 27 24 21 20 20 20 19 20 20 18 17 16 17 18 20 19 19 20 20 18 19 25 30 28 24 22 20 20 19 18 19 22 25 28 30 29
36 37 35 34 36 34 31 27 23 20 19 18 17 16 15 14 15 16 17 19 20 22 23 24 25 26 27 28 30 31 31 30 30 30 30 31 33 34 34 34 35 34 35 33 30 29 30 30 31 30 25 22 22 21 18 17 18 19 20 20 19 18 20 22 22 23 25 24 19 18 24 28 29 29 28 25 22 21 17 16 18 20 24 27 29
35 37 36 36 35 32 28 24 20 18 16 14 13 13 12 13 15 17 18 20 21 23 24 25 27 28 29 29 31 31 32 31 30 29 30 31 33 34 35 36 36 36 36 34 29 25 24 25 26 26 23 20 20 20 18 17 17 18 20 23 24 24 25 26 27 28 27 26 23 22 25 26 25 27 31 30 28 26 23 19 16 17 19 21 24
35 37 36 35 33 29 25 21 18 15 13 12 11 11 12 14 16 18 20 22 23 24 26 27 29 30 31 31 31 32 32 32 31 30 30 31 32 34 36 36 37 37 37 36 34 32 31 30 28 27 25 24 23 24 24 23 21 19 19 21 24 26 28 29 30 30 27 25 24 22 24 25 24 22 25 30 33 32 29 25 21 18 17 17 19
37 38 36 34 30 25 21 17 14 12 12 10 10 11 12 14 17 19 21 23 25 27 28 30 31 32 32 31 31 32 33 32 32 31 30 30 32 34 35 35 35 35 35 34 36 37 37 38 37 37 36 35 34 34 34 34 32 27 24 24 23 22 25 28 29 30 29 27 23 20 21 24 24 20 18 24 33 36 33 30 25 22 20 18 17
39 39 36 32 27 21 17 14 13 13 12 11 10 11 13 16 18 20 22 24 26 28 30 32 34 34 34 34 32 33 33 33 32 31 30 31 32 32 33 33 33 33 33 33 35 36 36 37 37 36 35 35 35 35 35 36 36 33 32 30 24 22 26 28 26 26 28 29 25 21 21 22 22 21 17 18 26 33 35 32 28 25 23 21 19
38 35 30 26 22 19 16 14 13 12 11 10 11 12 13 16 19 21 23 25 26 29 31 34 36 36 37 37 37 37 36 34 32 32 30 30 31 32 31 30 30 31 31 32 32 31 31 31 31 29 28 27 28 28 28 29 30 31 33 32 27 25 27 27 25 24 27 29 26 22 22 22 20 20 18 16 18 24 29 30 27 25 25 23 21
Wind_Direction
223 223 226 223 222 219 217 215 211 212 214 219 235 256 256 240 227 216 209 216 221 222 225 222 221 222 222 223 224 222 222 225 223 218 224 233 238 267 298 337 337 324 330 353 17 35 37 29 20 21 6 338 297 288 283 267 257 239 243 273 308 321 325 307 284 168 120 103 86 77 71 66 59 55 50 41 34 29 26 27 31 32 33 37 40
228 230 227 219 223 224 222 220 215 212 214 218 226 246 260 242 219 212 207 211 220 219 222 223 223 224 224 222 221 220 221 223 224 221 225 236 246 269 288 301 303 303 295 284 312 345 13 24 14 13 12 9 7 349 338 290 260 242 236 238 258 290 305 302 281 268 212 163 101 85 76 71 64 58 55 48 39 32 26 25 28 31 32 34 38
232 239 237 221 227 232 224 222 218 212 213 219 223 226 245 227 197 201 202 207 215 216 218 221 222 225 227 226 222 221 223 225 226 226 232 240 253 271 280 283 284 287 283 275 281 297 329 350 353 358 11 17 18 10 358 333 257 239 234 233 231 250 282 291 280 279 270 245 202 104 85 78 69 61 59 53 45 35 28 23 23 27 30 31 34
236 246 254 237 237 244 227 219 219 214 210 215 218 213 230 233 185 188 195 200 204 205 208 213 220 226 230 231 228 227 230 231 232 233 237 245 258 271 274 276 274 269 268 273 281 290 320 332 331 338 356 8 15 27 14 332 284 252 236 234 230 231 250 271 277 280 274 269 260 234 125 99 83 67 63 57 50 39 30 23 20 22 27 29 30
242 249 261 252 241 246 234 223 220 217 211 212 212 203 207 205 178 182 188 191 194 197 201 208 217 226 231 233 233 233 236 238 239 239 241 250 260 265 266 268 268 261 258 264 278 291 311 331 333 329 338 350 351 355 27 15 340 313 264 238 235 229 232 251 268 271 264 263 260 251 241 174 126 102 79 65 57 43 33 24 19 18 21 26 27
250 254 255 252 246 242 241 231 219 219 219 215 210 202 199 191 182 185 189 190 194 200 205 210 217 224 229 232 233 233 237 239 241 244 247 253 256 258 261 262 261 259 262 265 272 280 289 315 329 328 330 343 343 339 360 27 13 327 294 249 236 231 226 236 252 257 251 250 251 247 243 226 198 180 155 95 71 49 35 25 19 17 17 21 24
251 260 258 256 257 251 252 244 221 220 223 216 209 206 203 200 196 193 197 200 203 206 210 214 218 222 225 230 233 233 235 238 242 247 249 250 248 250 253 252 254 258 264 268 273 275 277 284 298 313 325 340 347 340 338 360 16 4 337 293 248 236 225 228 238 246 243 240 241 239 238 231 221 215 210 196 125 64 37 26 18 15 13 17 21
249 259 262 256 249 247 252 249 231 225 227 220 212 208 207 207 207 204 205 209 211 211 214 218 220 221 220 225 232 233 235 238 240 242 241 239 241 244 244 244 249 255 258 260 267 271 272 273 275 283 302 329 348 349 335 333 349 4 7 11 10 305 240 236 238 242 243 238 236 233 234 231 223 228 228 224 214 202 18 21 15 12 11 12 17
254 256 260 258 244 240 245 243 235 230 230 227 218 213 214 215 213 211 211 212 215 218 218 223 228 226 217 219 229 231 230 231 230 229 231 231 235 239 240 240 243 249 254 255 262 267 268 268 267 269 275 293 326 350 351 342 335 349 4 11 25 33 357 288 259 252 249 243 240 233 231 234 226 228 236 237 232 233 271 340 360 3 6 8 12
250 251 252 252 243 240 240 237 237 235 231 230 225 219 221 223 219 217 217 216 218 224 226 229 235 232 220 218 228 234 231 228 227 229 236 238 237 241 242 242 239 243 252 256 262 266 266 265 264 265 267 268 276 302 333 350 353 357 2 355 358 14 8 348 301 267 251 242 246 241 232 237 235 231 240 246 243 243 256 284 324 341 353 0 5
242 247 246 239 234 235 236 236 238 238 233 233 231 226 226 226 225 223 223 224 224 228 236 242 243 241 235 229 229 237 241 238 239 239 243 247 248 251 250 247 243 242 250 258 265 266 264 262 262 264 266 266 260 264 279 314 341 350 2 2 347 342 346 353 345 295 251 236 241 250 250 246 242 238 242 249 251 250 255 269 295 316 336 349 356
249 250 246 237 232 232 234 235 237 240 242 245 238 231 231 227 227 229 226 229 230 232 242 250 248 245 250 250 239 239 246 245 246 246 247 250 250 251 250 246 244 242 245 255 266 270 266 259 256 258 263 267 263 259 259 267 299 314 337 355 346 327 328 337 350 343 276 244 232 242 260 261 250 243 244 251 253 256 260 265 279 298 317 333 343
248 244 240 236 234 235 238 238 239 241 244 249 242 235 237 231 227 229 229 230 231 231 239 249 245 240 251 263 251 241 244 245 245 246 246 247 247 248 248 247 245 243 245 252 261 269 273 268 260 256 257 262 264 260 256 258 271 283 298 315 320 322 322 318 335 349 318 268 237 232 240 249 253 248 245 252 253 254 261 267 272 285 305 319 329
248 238 232 230 230 234 239 240 240 241 242 246 245 240 239 233 224 220 225 229 225 224 232 243 249 246 252 266 259 244 243 246 247 247 247 249 249 249 250 252 252 253 255 258 263 267 272 275 271 264 258 257 260 260 260 257 256 268 281 289 296 305 309 304 313 333 328 291 250 234 228 224 233 243 246 253 255 252 254 264 271 277 293 306 316
256 231 220 218 221 226 229 231 228 225 223 228 238 245 232 224 221 217 219 223 223 224 231 246 259 262 266 273 268 258 254 254 253 251 251 252 252 252 255 258 261 263 264 263 265 267 269 272 274 273 269 261 259 260 261 258 257 273 282 284 287 289 292 296 301 315 315 296 263 242 231 222 220 231 248 256 254 249 248 255 264 272 284 297 307
76 190 195 197 202 204 198 193 197 193 193 202 209 219 213 212 219 221 215 213 217 222 230 246 261 263 264 269 267 264 260 259 260 259 257 255 252 253 257 261 264 266 267 268 267 267 267 269 271 271 272 269 264 261 262 264 265 276 282 283 282 280 281 285 289 300 300 288 275 253 238 230 225 226 238 249 249 245 244 245 252 261 271 282 294
78 108 153 176 184 188 185 178 176 170 162 161 166 177 195 205 210 216 218 217 218 223 231 244 257 257 256 259 259 259 258 260 265 265 261 259 256 257 258 259 262 264 266 267 265 264 264 265 266 266 266 264 263 261 262 264 267 274 281 283 280 275 274 274 275 285 292 283 275 262 243 235 234 230 230 238 246 248 246 243 245 251 259 266 276
78 85 102 127 160 180 187 187 187 179 168 161 162 175 191 200 200 195 197 209 216 225 234 244 257 258 255 255 253 253 257 264 270 271 267 263 257 257 261 260 261 262 262 262 261 260 261 261 261 260 259 257 256 257 257 260 264 269 275 278 276 270 266 266 264 267 279 281 273 268 252 240 238 235 231 233 240 246 249 250 248 248 254 259 262
85 82 83 86 95 121 145 162 169 173 173 170 175 193 214 217 215 206 192 188 196 208 220 228 243 248 246 252 257 258 259 261 264 267 270 264 247 244 253 258 261 264 262 262 262 260 259 258 258 257 257 257 255 254 253 254 258 263 266 269 270 267 263 266 261 256 262 272 272 270 260 247 243 240 237 238 240 241 243 249 250 247 251 256 258
94 90 87 86 89 93 96 101 108 117 120 124 142 167 207 223 227 229 223 216 212 212 214 216 221 226 227 237 251 258 262 263 263 263 264 264 259 253 252 252 256 264 268 267 266 264 261 257 259 265 268 268 265 262 259 255 255 258 260 260 259 259 262 267 265 256 253 257 263 265 259 252 248 247 247 245 243 242 239 241 246 246 246 250 252
103 100 96 91 89 87 85 87 88 90 93 93 98 106 111 197 271 268 259 250 243 237 235 234 235 235 233 233 239 250 261 269 268 266 264 266 270 267 262 259 257 257 260 263 264 265 266 266 271 279 281 279 275 272 269 263 258 255 255 257 257 255 257 261 258 253 250 250 254 259 257 252 250 251 253 251 247 247 245 242 242 242 242 243 244
113 111 106 100 94 88 82 79 78 78 78 79 78 77 71 49 13 348 325 302 289 277 266 260 257 255 253 251 253 253 257 263 264 266 268 270 274 274 274 276 268 259 256 256 258 260 263 269 276 281 283 283 281 277 274 271 265 258 254 253 254 253 254 254 249 243 243 245 247 251 253 252 251 251 254 255 253 252 251 247 244 242 241 241 241
129 125 120 114 106 99 90 78 67 61 62 66 70 70 66 59 43 27 5 329 302 289 282 277 274 274 273 271 270 266 261 263 265 267 267 268 275 278 282 287 280 273 266 259 257 259 263 268 274 277 279 281 283 281 277 272 267 262 254 244 242 253 258 253 246 242 241 242 243 245 247 248 250 249 252 256 256 256 254 250 248 247 242 239 240
156 149 141 136 128 120 109 91 70 56 60 65 68 69 64 57 47 39 30 17 351 310 288 277 272 273 275 274 276 274 269 266 267 268 269 269 273 279 284 287 283 280 277 271 267 266 267 272 277 278 279 279 278 280 278 272 267 262 254 243 238 253 265 261 254 250 248 247 246 245 243 243 246 247 250 254 254 256 256 252 251 251 243 239 238
186 186 177 166 158 149 137 132 116 86 78 65 57 56 54 46 35 26 20 17 12 1 340 307 283 272 270 269 269 270 270 269 268 267 269 271 274 277 279 279 280 281 283 282 278 274 272 275 278 278 279 278 275 276 274 270 268 265 261 253 246 251 263 269 269 267 264 262 258 252 245 239 240 243 247 252 253 253 253 252 252 252 244 239 237
205 208 209 205 197 184 179 193 202 203 191 119 48 38 35 28 19 12 8 5 4 2 357 347 332 310 289 277 270 268 267 267 268 267 268 269 271 276 280 280 280 281 283 284 281 279 276 275 275 276 278 275 271 269 268 266 266 266 266 260 252 253 262 270 273 272 270 267 259 251 247 241 237 238 241 246 251 253 252 253 253 250 243 238 237
216 218 220 221 221 217 214 225 233 234 227 215 259 5 8 360 356 358 360 360 359 356 354 349 344 338 328 313 295 282 274 269 267 265 265 266 267 272 280 286 289 287 284 281 280 279 278 277 275 275 276 272 266 263 263 265 266 266 266 263 258 258 265 271 274 272 270 264 253 245 245 244 238 236 236 238 245 250 253 256 256 250 244 239 237
225 223 222 222 225 229 230 237 247 254 258 258 268 299 327 334 340 347 350 352 351 350 349 348 345 341 336 331 323 312 301 291 283 276 271 269 268 269 273 281 289 292 292 289 285 283 281 278 274 273 274 271 265 261 259 263 266 266 266 266 265 265 266 268 271 272 269 262 253 245 243 246 242 237 234 235 239 244 249 255 258 253 246 242 240
231 228 225 224 224 227 232 240 249 259 267 275 278 284 301 315 324 333 338 341 343 344 344 344 344 342 339 335 330 324 319 313 306 299 290 283 278 275 273 273 275 282 292 293 288 284 281 278 277 277 274 270 269 268 265 263 264 265 265 265 265 266 265 263 261 261 260 257 254 249 246 247 244 238 235 235 236 239 244 251 255 253 248 245 243
238 234 230 227 226 228 233 239 248 255 264 272 276 277 285 297 309 319 326 331 335 337 339 340 341 341 340 338 335 330 325 320 314 309 304 298 290 284 279 275 271 271 276 283 284 283 282 284 285 281 271 270 272 272 270 268 267 266 265 265 265 266 264 261 257 254 251 249 248 249 250 250 248 242 237 236 236 237 240 245 250 252 251 248 245
243 240 239 236 234 235 237 242 248 255 262 267 271 273 276 284 295 306 316 324 329 332 334 335 337 338 338 337 336 333 330 325 319 312 307 302 297 291 285 279 275 271 269 271 278 281 282 284 284 280 278 280 280 279 277 274 272 270 268 268 268 269 268 267 264 258 253 249 246 247 250 253 254 249 242 238 236 237 238 241 244 249 251 250 248
244 244 244 244 243 242 243 248 253 258 266 271 275 277 277 279 286 295 306 315 322 327 330 332 334 335 336 335 334 332 332 329 326 320 313 306 298 292 286 281 278 275 273 270 274 279 281 282 283 284 285 287 287 287 286 283 278 274 271 269 270 271 272 271 270 265 260 256 251 249 251 254 256 256 255 249 238 235 237 239 241 243 245 247 246
243 244 245 245 246 246 247 251 256 261 267 275 281 286 284 281 282 287 294 303 311 319 324 327 329 331 332 332 331 330 329 328 327 326 322 319 312 303 292 283 277 273 273 272 275 281 284 284 284 285 285 286 286 288 288 287 285 281 275 269 268 270 271 270 270 268 263 259 256 252 250 252 254 255 263 269 247 238 238 240 241 240 238 239 240
240 242 244 246 247 247 248 250 253 258 264 272 280 285 286 285 284 285 288 294 301 309 315 319 322 324 324 325 324 324 323 321 321 320 318 318 317 313 306 296 286 275 273 274 275 280 284 286 286 286 287 287 286 286 285 285 286 286 283 275 265 262 265 267 268 267 264 261 259 256 251 250 252 253 259 267 257 246 242 241 242 241 239 237 236
239 239 241 243 246 247 248 249 251 254 259 267 275 280 282 283 283 284 288 293 300 308 313 315 316 317 317 318 318 317 316 315 313 312 311 311 310 310 308 305 299 288 278 277 278 280 285 288 289 288 288 287 286 286 286 286 286 287 288 283 271 259 257 260 265 266 265 262 259 259 255 251 251 253 255 256 255 249 243 240 240 241 240 240 237
239 238 239 240 243 246 247 248 249 252 256 262 268 273 276 278 279 282 287 293 302 309 312 313 313 314 314 314 314 313 312 311 310 309 307 307 307 306 305 304 303 299 291 284 282 283 286 289 291 291 290 289 289 288 288 288 290 290 288 285 280 269 258 255 260 265 265 263 260 258 258 255 252 253 254 254 253 250 245 240 238 237 239 242 242
240 238 237 238 240 242 244 247 249 251 254 258 263 267 271 273 276 280 284 290 297 304 308 310 312 314 314 314 314 314 313 311 310 308 306 304 304 303 302 301 301 300 297 292 288 287 288 290 292 293 293 293 293 292 290 290 290 290 289 287 285 280 268 258 256 262 266 266 262 258 257 256 255 254 255 253 251 250 246 240 236 235 235 241 248
240 238 238 237 239 240 241 243 246 248 251 254 259 264 267 271 275 278 280 285 291 299 305 308 312 314 315 316 316 316 315 314 312 309 307 304 302 300 299 298 297 296 295 294 292 291 292 292 293 295 296 297 295 294 294 292 288 287 288 288 289 287 280 268 259 258 264 268 265 260 257 257 256 255 255 255 253 250 248 243 239 238 237 240 247
239 239 240 239 238 239 239 240 242 245 247 251 256 261 266 270 273 276 278 282 289 297 302 307 311 314 316 317 317 316 314 312 311 308 305 303 301 298 295 294 294 293 293 292 291 290 290 291 291 293 295 296 296 296 295 294 291 288 288 289 291 288 283 276 267 259 259 263 265 262 258 256 256 254 252 253 253 251 249 246 242 240 241 242 245
243 241 241 239 236 235 235 236 239 241 244 248 253 258 263 267 271 274 278 283 290 296 300 304 309 312 314 316 316 315 313 310 308 305 301 299 297 294 291 288 285 286 288 289 288 286 286 286 288 289 290 291 293 295 296 297 295 289 283 281 282 281 279 278 274 265 258 256 259 261 258 256 254 252 250 249 249 248 247 244 239 236 238 243 246
246 241 238 236 235 235 233 233 235 238 241 246 251 256 260 264 268 272 278 284 291 296 300 303 307 310 312 314 314 314 312 310 307 303 299 297 294 291 290 288 282 278 278 280 280 279 278 280 282 285 287 287 289 291 292 294 294 288 282 278 275 277 278 276 274 272 266 257 254 257 260 260 258 254 250 248 246 245 245 244 240 237 237 242 246
244 240 235 232 233 235 234 233 234 237 241 246 251 255 259 263 267 273 281 287 292 297 300 303 305 308 310 311 312 312 311 310 307 304 301 298 294 291 289 286 282 278 274 272 269 269 270 271 273 277 279 280 283 285 286 288 289 288 286 285 282 279 279 278 277 277 273 262 256 257 260 263 264 258 252 250 249 246 246 246 245 243 242 241 243
242 238 233 229 229 231 232 234 235 237 240 245 250 255 260 265 271 279 285 290 294 297 301 303 305 306 307 308 309 309 309 309 307 304 303 300 296 292 289 285 282 279 276 273 270 266 265 265 265 266 269 271 277 281 280 282 284 284 282 284 284 279 276 278 280 280 276 266 259 258 259 258 257 255 252 251 252 252 249 248 248 246 245 242 241
238 232 228 226 225 226 229 232 234 235 239 244 251 257 265 272 278 284 289 293 297 300 301 303 305 305 306 307 307 308 308 308 306 305 304 301 298 295 292 288 285 281 279 276 274 271 268 266 265 263 263 266 270 274 275 276 278 279 278 277 277 276 273 272 274 272 270 268 264 259 256 253 248 247 248 250 253 256 255 252 249 247 245 243 240
236 227 224 223 223 224 227 230 231 233 237 243 251 260 269 277 283 289 294 297 299 301 303 303 304 305 306 307 308 308 309 308 307 307 304 301 299 296 293 291 288 285 283 279 276 273 270 267 265 264 263 263 264 266 270 272 272 272 273 272 272 272 269 268 269 267 264 264 266 264 258 252 248 245 244 246 249 253 257 259 255 250 247 243 240
232 223 221 221 220 221 224 226 229 233 236 241 251 261 271 279 287 294 298 299 300 302 303 304 305 306 307 309 309 309 309 308 308 307 304 301 298 295 292 290 288 287 285 282 280 277 273 269 266 265 263 261 262 264 267 268 267 267 268 269 269 267 267 267 267 265 261 258 260 264 261 255 251 248 245 245 248 249 252 260 259 253 249 245 241
229 221 219 218 216 217 219 223 226 231 237 246 256 263 272 282 292 299 300 301 302 304 304 305 306 307 309 310 310 310 309 308 307 305 302 299 296 294 291 289 287 285 283 281 278 275 272 269 268 267 265 262 262 264 264 263 264 265 266 266 264 264 265 266 265 265 263 260 256 257 259 256 253 251 248 247 249 248 248 252 257 253 248 244 242
224 219 217 214 212 213 216 218 222 231 242 253 259 265 275 287 297 302 303 303 305 305 306 306 307 308 309 311 311 311 309 308 307 306 303 299 296 293 290 288 286 284 282 280 277 275 272 269 268 266 263 260 258 257 257 258 261 265 268 266 263 263 264 264 264 263 264 262 256 251 253 254 252 252 251 248 248 249 250 251 253 252 249 245 244
220 216 213 209 209 212 213 214 219 231 241 247 255 267 282 293 300 303 304 305 305 305 306 306 306 308 309 310 311 311 310 310 309 307 304 300 296 293 291 289 287 284 282 281 279 278 276 274 273 272 270 268 265 263 262 263 265 265 264 263 261 260 259 259 261 261 261 260 255 246 248 251 249 249 253 250 248 249 251 252 250 247 248 249 248
217 211 207 204 203 204 204 208 218 230 238 246 260 275 288 297 302 304 304 304 305 306 306 307 307 308 309 309 310 310 309 309 309 307 305 301 298 295 292 291 288 285 284 283 282 280 279 278 277 277 276 274 273 272 270 268 266 262 257 256 255 254 254 254 255 258 259 257 251 242 243 248 246 244 249 253 253 251 250 251 250 246 246 249 250
208 202 199 197 193 190 193 205 221 235 249 264 276 286 294 299 301 302 303 304 305 306 307 306 307 308 310 312 313 311 309 309 308 305 304 301 298 296 293 290 286 285 286 286 285 283 281 279 278 275 273 272 271 271 270 269 266 261 255 252 249 248 250 250 250 251 254 254 250 241 239 243 245 244 243 246 253 255 252 251 250 249 248 248 250
Height
1544 1544 1545 1546 1546 1547 1547 1548 1548 1549 1549 1549 1550 1550 1550 1549 1549 1550 1551 1552 1553 1554 1555 1557 1558 1559 1560 1561 1563 1563 1564 1565 1566 1566 1567 1567 1567 1568 1568 1568 1569 1569 1569 1569 1570 1570 1570 1570 1571 1571 1571 1571 1571 1572 1572 1572 1573 1573 1573 1573 1573 1573 1573 1573 1573 1573 1572 1572 1572 1572 1572 1571 1571 1571 1570 1569 1569 1568 1567 1566 1565 1564 1563 1563 1562
1543 1544 1545 1545 1546 1546 1547 1547 1548 1548 1548 1549 1549 1549 1549 1548 1548 1549 1550 1551 1553 1554 1555 1556 1558 1558 1559 1560 1562 1563 1563 1564 1565 1566 1566 1567 1567 1567 1568 1568 1568 1569 1569 1569 1569 1570 1570 1570 1570 1571 1571 1571 1571 1571 1571 1572 1572 1572 1572 1572 1573 1573 1573 1573 1573 1572 1572 1572 1572 1572 1572 1572 1571 1571 1570 1570 1569 1568 1568 1567 1566 1565 1564 1564 1563
1543 1543 1543 1545 1545 1545 1546 1546 1547 1548 1548 1548 1548 1548 1549 1548 1548 1549 1550 1551 1552 1553 1555 1556 1557 1558 1558 1559 1561 1562 1563 1564 1564 1565 1566 1566 1567 1567 1567 1567 1568 1568 1568 1568 1569 1569 1569 1570 1570 1570 1570 1571 1571 1571 1571 1571 1571 1571 1571 1571 1572 1572 1572 1572 1572 1572 1572 1572 1572 1572 1572 1572 1571 1571 1571 1570 1570 1569 1568 1567 1567 1566 1565 1564 1564
1542 1542 1542 1543 1544 1543 1545 1546 1546 1546 1547 1547 1547 1548 1548 1548 1548 1549 1550 1551 1552 1553 1555 1556 1556 1557 1558 1559 1560 1561 1562 1563 1564 1565 1565 1566 1566 1567 1567 1567 1567 1568 1568 1568 1568 1568 1568 1569 1569 1570 1570 1570 1570 1570 1570 1570 1570 1570 1570 1570 1571 1571 1571 1572 1572 1572 1572 1572 1572 1572 1572 1571 1571 1571 1571 1570 1570 1570 1569 1568 1567 1566 1565 1565 1564
1541 1541 1541 1542 1542 1542 1543 1544 1544 1545 1546 1546 1546 1547 1548 1548 1548 1549 1550 1551 1552 1553 1554 1555 1556 1557 1557 1558 1559 1560 1561 1562 1563 1564 1564 1565 1566 1566 1566 1567 1567 1567 1567 1567 1568 1568 1568 1568 1569 1569 1569 1569 1569 1569 1570 1569 1569 1569 1569 1570 1570 1570 1571 1571 1571 1571 1572 1572 1571 1571 1571 1571 1571 1571 1571 1571 1570 1570 1569 1569 1568 1567 1566 1565 1565
1539 1540 1540 1541 1542 1541 1541 1542 1543 1544 1545 1545 1545 1546 1547 1548 1549 1549 1550 1551 1552 1553 1554 1554 1555 1556 1556 1557 1558 1559 1560 1560 1561 1562 1563 1564 1565 1565 1566 1566 1566 1566 1567 1567 1567 1567 1568 1568 1568 1568 1569 1569 1568 1568 1569 1569 1568 1568 1568 1568 1569 1569 1569 1570 1570 1571 1571 1571 1571 1571 1571 1571 1571 1571 1570 1570 1570 1570 1570 1569 1568 1568 1567 1566 1565
1538 1538 1539 1540 1540 1539 1539 1541 1542 1543 1543 1544 1545 1546 1547 1548 1549 1550 1550 1551 1552 1552 1553 1554 1554 1555 1555 1556 1557 1558 1558 1559 1560 1561 1562 1563 1563 1564 1565 1565 1565 1566 1566 1566 1566 1567 1567 1567 1568 1568 1568 1568 1568 1568 1568 1568 1568 1567 1567 1567 1568 1568 1568 1569 1569 1569 1570 1570 1570 1570 1570 1570 1570 1570 1570 1570 1570 1570 1570 1569 1569 1568 1567 1566 1566
1537 1537 1539 1540 1539 1538 1539 1540 1541 1542 1542 1544 1545 1546 1548 1548 1549 1549 1550 1550 1551 1551 1552 1552 1553 1554 1555 1556 1556 1557 1557 1558 1559 1560 1561 1561 1562 1563 1563 1564 1564 1565 1565 1566 1566 1566 1566 1566 1567 1567 1568 1568 1568 1568 1567 1567 1567 1567 1567 1567 1567 1567 1568 1568 1568 1568 1568 1569 1569 1569 1569 1570 1570 1570 1570 1570 1570 1570 1569 1569 1569 1568 1568 1567 1566
1536 1537 1538 1539 1538 1538 1538 1539 1539 1540 1541 1543 1545 1547 1547 1547 1547 1548 1549 1550 1550 1550 1551 1551 1552 1553 1554 1555 1555 1556 1557 1557 1558 1559 1560 1560 1561 1561 1562 1563 1563 1564 1564 1564 1565 1565 1565 1566 1566 1566 1567 1568 1568 1568 1567 1567 1567 1567 1566 1566 1567 1567 1567 1568 1568 1568 1568 1568 1568 1568 1569 1569 1569 1569 1570 1570 1569 1569 1569 1569 1569 1568 1568 1567 1566
1535 1535 1536 1537 1537 1537 1538 1538 1538 1539 1540 1542 1544 1545 1545 1545 1546 1547 1548 1549 1549 1550 1550 1551 1551 1552 1553 1553 1554 1555 1556 1556 1557 1557 1558 1559 1560 1560 1561 1561 1562 1562 1563 1563 1564 1564 1564 1564 1565 1565 1566 1567 1567 1567 1567 1567 1567 1567 1566 1566 1566 1567 1567 1567 1567 1567 1567 1567 1567 1568 1568 1568 1569 1569 1569 1569 1569 1569 1569 1569 1568 1568 1568 1567 1566
1533 1534 1535 1535 1536 1536 1537 1537 1537 1538 1539 1541 1542 1543 1543 1544 1545 1546 1547 1548 1548 1549 1549 1550 1550 1551 1552 1552 1553 1554 1554 1555 1556 1556 1557 1557 1558 1559 1559 1560 1560 1561 1562 1562 1562 1563 1563 1563 1564 1564 1565 1565 1566 1566 1566 1566 1566 1566 1566 1566 1566 1566 1566 1567 1567 1566 1566 1566 1567 1567 1568 1568 1568 1568 1568 1568 1569 1569 1569 1568 1568 1568 1567 1567 1566
1532 1532 1533 1533 1534 1535 1535 1536 1537 1537 1539 1539 1540 1541 1542 1543 1544 1545 1547 1547 1547 1548 1549 1549 1549 1550 1551 1550 1550 1552 1553 1554 1555 1555 1556 1556 1557 1557 1558 1558 1559 1560 1560 1561 1561 1561 1562 1562 1562 1563 1563 1564 1564 1565 1565 1565 1566 1566 1566 1566 1566 1565 1565 1566 1566 1565 1565 1565 1566 1566 1567 1567 1567 1567 1567 1568 1568 1568 1568 1568 1568 1568 1567 1567 1566
1530 1530 1531 1532 1532 1533 1534 1534 1536 1537 1538 1538 1539 1540 1540 1541 1542 1543 1545 1545 1546 1547 1548 1548 1549 1549 1550 1549 1549 1550 1551 1552 1553 1554 1554 1555 1555 1556 1557 1557 1558 1558 1559 1559 1560 1560 1561 1561 1561 1561 1562 1562 1563 1563 1564 1564 1564 1564 1565 1565 1565 1565 1565 1564 1565 1565 1565 1565 1565 1565 1565 1566 1566 1567 1567 1567 1567 1567 1567 1567 1567 1567 1567 1567 1566
1529 1529 1529 1530 1531 1532 1532 1533 1534 1535 1536 1537 1538 1538 1539 1539 1540 1540 1542 1543 1544 1546 1547 1547 1548 1548 1548 1548 1548 1548 1549 1550 1551 1552 1553 1553 1554 1554 1555 1555 1556 1557 1557 1558 1558 1559 1559 1560 1560 1560 1560 1561 1561 1562 1562 1563 1563 1563 1564 1564 1564 1564 1564 1564 1564 1564 1564 1564 1563 1563 1564 1564 1565 1566 1566 1566 1566 1566 1566 1566 1567 1567 1567 1566 1566
1527 1527 1528 1529 1530 1530 1531 1532 1533 1534 1535 1535 1536 1537 1537 1537 1538 1539 1540 1542 1543 1544 1545 1545 1546 1546 1546 1546 1546 1547 1547 1548 1549 1550 1550 1551 1552 1552 1553 1554 1554 1555 1555 1556 1557 1557 1558 1558 1558 1559 1559 1559 1560 1560 1561 1561 1561 1562 1562 1562 1563 1563 1563 1563 1563 1562 1562 1562 1562 1562 1562 1563 1564 1564 1565 1565 1565 1565 1565 1565 1566 1566 1566 1566 1566
1527 1527 1527 1528 1529 1530 1530 1531 1532 1532 1533 1534 1535 1536 1536 1536 1537 1538 1539 1540 1541 1542 1543 1544 1544 1545 1545 1545 1545 1546 1546 1546 1547 1548 1548 1549 1550 1550 1551 1552 1552 1553 1553 1554 1555 1555 1556 1556 1557 1557 1557 1558 1558 1559 1559 1560 1560 1560 1561 1561 1561 1561 1561 1562 1562 1562 1561 1561 1561 1561 1561 1561 1562 1562 1563 1563 1564 1564 1564 1564 1565 1565 1565 1565 1565
1527 1527 1527 1528 1529 1529 1530 1531 1531 1532 1532 1533 1534 1535 1535 1536 1537 1538 1539 1539 1540 1541 1542 1543 1543 1543 1544 1544 1544 1544 1545 1545 1545 1546 1546 1546 1547 1548 1549 1549 1550 1550 1551 1551 1552 1553 1553 1554 1554 1555 1555 1556 1556 1557 1557 1558 1558 1559 1559 1559 1559 1560 1560 1560 1560 1561 1560 1560 1559 1559 1559 1560 1560 1561 1561 1562 1562 1563 1563 1563 1563 1563 1564 1564 1564
1527 1527 1528 1528 1529 1529 1530 1531 1531 1532 1533 1533 1534 1535 1535 1535 1536 1537 1537 1538 1539 1540 1540 1541 1542 1542 1542 1542 1542 1543 1543 1544 1544 1544 1544 1544 1545 1546 1547 1547 1548 1548 1548 1549 1549 1550 1551 1551 1552 1552 1553 1553 1554 1554 1555 1556 1556 1557 1557 1557 1557 1558 1558 1558 1559 1559 1559 1559 1558 1558 1558 1558 1559 1559 1560 1560 1561 1561 1562 1562 1562 1562 1562 1562 1562
1528 1528 1528 1528 1529 1529 1530 1531 1531 1532 1533 1533 1534 1535 1535 1535 1535 1536 1537 1537 1538 1539 1539 1540 1541 1541 1541 1541 1541 1541 1542 1542 1543 1543 1543 1543 1544 1545 1545 1545 1546 1546 1546 1547 1547 1548 1548 1549 1549 1550 1550 1551 1551 1552 1552 1553 1554 1554 1555 1555 1555 1556 1556 1556 1557 1557 1557 1557 1557 1557 1557 1557 1557 1557 1558 1559 1559 1560 1560 1560 1561 1561 1561 1561 1561
1529 1529 1529 1529 1530 1530 1530 1531 1531 1532 1533 1533 1534 1534 1534 1535 1535 1536 1536 1537 1537 1538 1538 1539 1539 1539 1539 1540 1540 1540 1541 1541 1541 1541 1541 1542 1542 1543 1544 1544 1544 1544 1545 1545 1545 1546 1546 1547 1547 1548 1548 1549 1549 1550 1550 1551 1551 1552 1552 1553 1553 1553 1554 1554 1554 1555 1555 1555 1555 1555 1555 1555 1555 1555 1556 1557 1557 1558 1558 1558 1559 1559 1559 1560 1560
1530 1530 1530 1530 1530 1531 1531 1531 1532 1532 1533 1533 1534 1534 1534 1534 1535 1535 1535 1536 1536 1537 1537 1537 1538 1538 1538 1539 1539 1540 1540 1540 1540 1540 1540 1540 1541 1542 1542 1541 1542 1542 1543 1543 1543 1544 1544 1545 1545 1546 1546 1547 1547 1548 1548 1548 1549 1549 1550 1550 1551 1551 1551 1551 1552 1552 1552 1553 1553 1553 1553 1553 1553 1553 1554 1554 1555 1555 1556 1556 1557 1557 1557 1558 1558
1531 1531 1531 1531 1531 1531 1531 1532 1532 1532 1533 1533 1534 1534 1534 1534 1534 1535 1535 1535 1535 1535 1536 1536 1536 1537 1537 1538 1538 1539 1539 1539 1539 1539 1539 1539 1539 1540 1540 1540 1540 1540 1540 1541 1541 1542 1542 1543 1543 1543 1544 1544 1544 1545 1545 1546 1546 1547 1547 1548 1548 1548 1548 1548 1549 1549 1550 1550 1551 1551 1552 1552 1551 1551 1551 1552 1552 1553 1553 1554 1554 1555 1555 1556 1556
1531 1531 1531 1531 1532 1532 1532 1532 1532 1532 1533 1533 1534 1534 1534 1534 1534 1534 1534 1534 1534 1535 1535 1535 1535 1535 1536 1536 1537 1537 1538 1538 1538 1538 1538 1539 1539 1539 1539 1539 1538 1538 1538 1539 1539 1540 1540 1541 1541 1541 1541 1541 1541 1541 1542 1543 1543 1544 1545 1545 1545 1545 1546 1546 1547 1547 1547 1547 1548 1548 1549 1549 1550 1550 1549 1549 1550 1550 1550 1551 1552 1552 1553 1554 1555
1532 1532 1532 1532 1532 1532 1532 1532 1532 1532 1533 1533 1533 1534 1534 1534 1534 1534 1534 1534 1534 1534 1534 1534 1534 1535 1535 1535 1535 1536 1536 1537 1537 1537 1537 1537 1538 1538 1538 1537 1536 1536 1536 1537 1537 1538 1539 1539 1539 1539 1539 1539 1539 1539 1539 1540 1540 1541 1542 1542 1543 1543 1543 1544 1545 1545 1545 1545 1545 1545 1546 1546 1547 1547 1547 1547 1547 1547 1547 1548 1549 1549 1550 1552 1552
1532 1532 1532 1532 1532 1532 1532 1532 1532 1532 1532 1533 1533 1533 1534 1534 1534 1534 1534 1534 1534 1534 1534 1534 1534 1534 1534 1534 1534 1534 1535 1535 1535 1536 1536 1536 1536 1536 1536 1536 1535 1534 1534 1535 1535 1536 1536 1537 1537 1537 1537 1537 1537 1537 1537 1537 1537 1538 1539 1539 1540 1540 1541 1542 1542 1543 1543 1543 1543 1543 1543 1543 1544 1545 1545 1544 1545 1545 1545 1545 1546 1547 1547 1549 1550
1532 1532 1532 1532 1532 1532 1532 1532 1532 1533 1533 1533 1533 1533 1533 1534 1534 1534 1534 1534 1534 1534 1534 1534 1533 1533 1533 1533 1533 1533 1533 1534 1534 1534 1534 1534 1534 1535 1534 1534 1533 1533 1533 1533 1533 1533 1534 1534 1535 1535 1535 1535 1535 1535 1534 1535 1535 1535 1535 1536 1537 1537 1537 1538 1539 1539 1540 1540 1540 1540 1540 1540 1540 1541 1542 1542 1542 1542 1543 1543 1543 1544 1545 1546 1547
1531 1532 1532 1532 1532 1532 1532 1532 1532 1532 1533 1533 1533 1533 1533 1533 1533 1534 1534 1534 1534 1534 1534 1534 1533 1533 1533 1533 1532 1532 1532 1532 1532 1532 1532 1533 1533 1533 1533 1532 1532 1531 1531 1531 1530 1530 1531 1532 1532 1533 1533 1533 1533 1532 1532 1532 1533 1532 1532 1533 1533 1533 1534 1534 1534 1535 1536 1536 1536 1536 1536 1537 1537 1537 1538 1539 1539 1540 1540 1540 1541 1542 1543 1543 1544
1530 1531 1531 1532 1532 1532 1532 1532 1532 1532 1532 1532 1533 1533 1533 1533 1533 1533 1533 1533 1533 1533 1533 1533 1533 1533 1532 1532 1532 1531 1531 1531 1530 1530 1530 1531 1531 1531 1531 1531 1531 1530 1529 1528 1527 1528 1528 1529 1529 1530 1531 1530 1530 1530 1530 1531 1531 1530 1530 1530 1530 1530 1531 1531 1531 1531 1532 1532 1532 1533 1533 1533 1534 1534 1535 1536 1536 1537 1537 1538 1539 1540 1541 1541 1542
1530 1530 1530 1531 1531 1531 1531 1532 1531 1532 1532 1532 1532 1532 1532 1533 1532 1532 1532 1532 1532 1532 1532 1532 1532 1532 1532 1531 1531 1530 1530 1529 1529 1529 1529 1529 1529 1529 1529 1530 1530 1529 1528 1526 1525 1525 1526 1526 1527 1528 1527 1527 1526 1527 1528 1528 1528 1527 1527 1527 1527 1528 1528 1528 1527 1527 1528 1528 1529 1529 1529 1530 1530 1531 1531 1532 1533 1534 1535 1535 1535 1537 1538 1538 1539
1529 1529 1529 1529 1530 1530 1531 1531 1531 1531 1531 1532 1532 1532 1532 1532 1532 1532 1531 1531 1531 1531 1531 1531 1531 1531 1531 1530 1530 1529 1529 1529 1528 1528 1527 1527 1527 1527 1527 1527 1528 1528 1528 1526 1523 1522 1523 1523 1524 1525 1524 1523 1523 1523 1524 1525 1525 1525 1525 1525 1524 1524 1524 1524 1524 1524 1524 1524 1525 1525 1526 1526 1526 1527 1528 1529 1530 1530 1531 1531 1532 1533 1535 1536 1537
1529 1529 1529 1529 1529 1529 1529 1530 1530 1530 1531 1531 1531 1531 1531 1531 1531 1531 1531 1530 1530 1530 1530 1530 1530 1530 1529 1529 1529 1528 1528 1528 1527 1527 1526 1526 1526 1526 1526 1525 1526 1525 1526 1525 1521 1519 1521 1521 1521 1521 1520 1519 1520 1520 1520 1521 1521 1521 1521 1521 1521 1521 1521 1521 1521 1521 1521 1521 1521 1521 1522 1523 1523 1524 1524 1525 1525 1526 1527 1528 1529 1530 1532 1534 1534
1527 1527 1528 1528 1528 1529 1528 1528 1529 1529 1529 1530 1530 1531 1531 1531 1530 1530 1530 1530 1529 1529 1528 1528 1527 1527 1527 1527 1526 1526 1525 1525 1525 1525 1525 1524 1524 1524 1524 1523 1524 1523 1523 1523 1519 1516 1517 1518 1517 1517 1517 1516 1516 1516 1516 1516 1516 1517 1518 1518 1518 1517 1517 1517 1517 1517 1517 1518 1518 1518 1518 1519 1520 1520 1520 1520 1520 1521 1522 1524 1525 1526 1528 1530 1531
1525 1525 1526 1526 1526 1527 1527 1527 1527 1527 1527 1528 1528 1529 1529 1529 1529 1529 1529 1529 1529 1528 1528 1527 1526 1525 1525 1524 1524 1523 1523 1522 1522 1522 1521 1521 1521 1521 1521 1521 1521 1520 1520 1520 1517 1513 1512 1514 1514 1513 1514 1513 1513 1513 1512 1512 1512 1512 1513 1514 1514 1514 1514 1514 1513 1513 1514 1514 1514 1514 1515 1515 1516 1516 1516 1516 1517 1518 1519 1520 1520 1521 1523 1525 1526
1522 1522 1523 1524 1524 1524 1524 1524 1525 1525 1525 1526 1526 1526 1526 1527 1527 1527 1528 1528 1528 1528 1527 1527 1526 1525 1524 1524 1523 1522 1521 1521 1521 1520 1519 1519 1518 1518 1518 1517 1517 1517 1517 1516 1515 1512 1509 1510 1510 1509 1509 1509 1509 1509 1509 1508 1508 1508 1509 1510 1510 1510 1510 1510 1510 1509 1509 1510 1511 1511 1511 1511 1511 1512 1513 1513 1514 1514 1515 1515 1516 1517 1519 1520 1522
1519 1520 1520 1521 1521 1521 1521 1522 1522 1523 1523 1523 1524 1524 1524 1524 1524 1524 1525 1525 1526 1526 1526 1525 1525 1524 1524 1523 1522 1521 1520 1520 1519 1519 1518 1517 1517 1516 1515 1515 1514 1514 1513 1513 1512 1510 1507 1506 1506 1506 1506 1506 1505 1505 1505 1505 1505 1505 1505 1506 1506 1506 1507 1506 1506 1506 1506 1506 1507 1507 1507 1507 1507 1508 1509 1509 1510 1510 1510 1511 1511 1513 1514 1515 1516
1517 1518 1518 1519 1519 1519 1519 1519 1519 1520 1520 1521 1521 1521 1522 1521 1522 1522 1522 1523 1523 1523 1523 1522 1522 1522 1521 1521 1520 1519 1519 1518 1517 1516 1516 1515 1514 1514 1513 1512 1511 1511 1510 1509 1509 1508 1505 1503 1503 1503 1502 1502 1502 1502 1501 1501 1501 1501 1501 1502 1502 1502 1503 1502 1502 1502 1502 1502 1503 1503 1503 1503 1503 1504 1504 1505 1506 1506 1506 1506 1507 1508 1509 1510 1510
1514 1515 1516 1517 1517 1517 1517 1517 1517 1517 1518 1518 1519 1519 1519 1519 1519 1520 1520 1521 1521 1520 1520 1520 1520 1519 1519 1518 1517 1517 1516 1515 1514 1514 1513 1512 1512 1511 1510 1510 1509 1508 1507 1507 1506 1505 1503 1501 1499 1500 1499 1499 1498 1498 1498 1498 1497 1497 1497 1498 1498 1498 1498 1499 1499 1498 1498 1499 1499 1499 1499 1499 1500 1500 1500 1501 1501 1502 1502 1503 1503 1503 1505 1506 1506
1510 1512 1514 1514 1514 1515 1515 1515 1515 1515 1516 1516 1516 1517 1517 1517 1518 1518 1518 1518 1518 1518 1518 1518 1517 1517 1516 1515 1515 1514 1513 1512 1511 1510 1510 1509 1509 1508 1508 1507 1507 1506 1505 1504 1503 1502 1501 1499 1497 1496 1496 1496 1495 1495 1495 1495 1494 1494 1494 1493 1494 1494 1494 1495 1495 1495 1495 1495 1496 1496 1496 1496 1496 1496 1497 1497 1497 1498 1499 1499 1500 1500 1501 1502 1503
1507 1510 1512 1512 1512 1513 1513 1513 1513 1513 1513 1513 1514 1514 1515 1515 1516 1516 1516 1516 1516 1516 1515 1515 1514 1514 1513 1512 1512 1511 1510 1509 1508 1508 1507 1506 1506 1505 1505 1504 1504 1503 1502 1501 1500 1499 1498 1497 1496 1494 1493 1493 1492 1491 1492 1492 1491 1491 1491 1490 1490 1490 1491 1491 1491 1491 1492 1492 1492 1492 1492 1492 1493 1493 1493 1493 1493 1494 1495 1496 1497 1497 1498 1499 1500
1504 1508 1508 1508 1510 1510 1510 1510 1510 1510 1510 1511 1511 1512 1512 1513 1513 1513 1513 1513 1513 1513 1513 1512 1512 1511 1510 1510 1509 1508 1508 1507 1506 1505 1504 1503 1503 1502 1502 1501 1501 1500 1499 1498 1497 1496 1495 1494 1493 1492 1491 1490 1489 1489 1488 1488 1488 1488 1488 1488 1487 1487 1487 1487 1487 1488 1488 1489 1489 1489 1489 1489 1489 1489 1489 1490 1490 1490 1491 1492 1493 1494 1494 1495 1496
1499 1502 1503 1506 1508 1509 1508 1507 1506 1507 1507 1508 1509 1510 1510 1511 1511 1511 1511 1511 1510 1510 1510 1509 1509 1508 1507 1507 1506 1505 1505 1504 1503 1502 1501 1501 1499 1498 1498 1498 1498 1497 1496 1496 1495 1494 1493 1491 1490 1489 1488 1487 1487 1487 1486 1485 1484 1484 1484 1484 1483 1483 1483 1483 1483 1484 1485 1486 1486 1485 1485 1485 1485 1485 1486 1486 1487 1487 1487 1488 1489 1490 1490 1492 1492
1494 1496 1498 1502 1505 1506 1505 1504 1503 1503 1505 1506 1507 1507 1508 1508 1509 1509 1509 1508 1508 1507 1506 1506 1505 1505 1504 1503 1503 1502 1502 1501 1500 1499 1498 1497 1496 1495 1494 1494 1494 1493 1493 1492 1492 1491 1490 1488 1487 1486 1484 1483 1483 1484 1483 1482 1481 1481 1480 1480 1480 1480 1480 1479 1479 1480 1481 1482 1482 1482 1482 1482 1482 1482 1482 1482 1483 1483 1483 1484 1485 1486 1487 1488 1489
1490 1492 1495 1497 1500 1502 1502 1502 1502 1502 1503 1504 1505 1505 1506 1506 1506 1506 1506 1505 1505 1504 1503 1503 1502 1501 1501 1500 1499 1499 1498 1497 1496 1495 1494 1493 1492 1491 1490 1489 1489 1488 1488 1487 1487 1487 1486 1485 1483 1482 1481 1480 1480 1480 1479 1479 1478 1478 1477 1477 1477 1477 1477 1476 1476 1477 1478 1478 1478 1478 1478 1478 1479 1479 1478 1479 1479 1479 1480 1480 1481 1482 1482 1484 1485
1486 1489 1491 1494 1496 1498 1499 1499 1500 1501 1501 1502 1503 1503 1503 1503 1503 1503 1503 1503 1502 1501 1500 1500 1499 1498 1497 1496 1495 1495 1494 1493 1492 1490 1489 1488 1487 1486 1485 1484 1484 1483 1483 1482 1481 1481 1481 1480 1479 1478 1477 1476 1476 1475 1475 1475 1475 1474 1474 1474 1474 1474 1474 1473 1473 1474 1474 1474 1474 1474 1474 1475 1475 1475 1475 1475 1475 1475 1476 1476 1477 1478 1478 1479 1480
1483 1485 1488 1489 1492 1494 1495 1497 1499 1499 1499 1499 1500 1501 1501 1501 1501 1501 1500 1500 1500 1499 1498 1497 1496 1495 1494 1493 1492 1491 1490 1489 1488 1486 1485 1483 1482 1480 1479 1478 1478 1477 1477 1476 1475 1475 1475 1474 1473 1472 1472 1472 1472 1472 1472 1471 1471 1470 1470 1470 1471 1470 1470 1470 1470 1470 1470 1470 1471 1470 1469 1470 1471 1471 1472 1472 1472 1472 1473 1473 1473 1474 1475 1475 1476
1480 1482 1484 1485 1488 1490 1493 1495 1497 1497 1497 1496 1497 1498 1498 1498 1498 1498 1498 1497 1497 1496 1495 1494 1493 1492 1491 1490 1488 1487 1486 1485 1484 1483 1480 1478 1477 1475 1474 1473 1472 1472 1471 1470 1469 1469 1468 1468 1466 1465 1467 1468 1467 1468 1468 1467 1466 1466 1466 1466 1466 1466 1465 1465 1465 1465 1465 1466 1467 1466 1465 1465 1467 1468 1468 1469 1469 1468 1469 1470 1470 1471 1471 1472 1472
1477 1479 1481 1482 1485 1488 1490 1493 1494 1496 1496 1495 1494 1495 1496 1496 1496 1496 1495 1495 1494 1493 1492 1491 1490 1489 1489 1487 1485 1484 1482 1481 1480 1479 1477 1474 1472 1470 1469 1468 1467 1466 1465 1465 1464 1464 1463 1462 1461 1460 1461 1462 1462 1462 1463 1462 1462 1461 1461 1461 1460 1460 1460 1459 1459 1459 1460 1461 1462 1462 1460 1461 1463 1463 1464 1465 1465 1464 1465 1467 1468 1468 1468 1468 1469
1475 1477 1478 1481 1483 1486 1488 1490 1492 1493 1493 1493 1493 1493 1494 1494 1494 1493 1493 1492 1491 1490 1489 1488 1487 1486 1485 1484 1482 1480 1478 1477 1476 1475 1473 1470 1467 1465 1463 1462 1461 1460 1459 1459 1458 1458 1457 1457 1456 1456 1456 1456 1456 1456 1457 1457 1457 1457 1457 1456 1455 1456 1455 1454 1453 1453 1455 1456 1458 1458 1457 1457 1459 1459 1460 1460 1460 1460 1461 1462 1464 1466 1466 1466 1467
1472 1473 1476 1478 1481 1484 1487 1488 1490 1491 1491 1490 1491 1491 1491 1491 1491 1490 1490 1489 1488 1487 1485 1485 1484 1483 1482 1481 1479 1477 1474 1473 1471 1470 1468 1466 1463 1460 1458 1456 1455 1453 1452 1452 1452 1451 1451 1450 1449 1449 1448 1449 1449 1449 1450 1450 1451 1452 1453 1450 1450 1452 1451 1448 1448 1448 1449 1451 1453 1455 1454 1453 1454 1456 1456 1456 1455 1455 1457 1458 1460 1462 1463 1463 1464
1469 1470 1472 1476 1479 1482 1485 1487 1488 1488 1488 1489 1489 1489 1489 1488 1488 1487 1487 1486 1485 1483 1482 1480 1479 1478 1477 1476 1475 1473 1470 1469 1467 1465 1464 1461 1458 1456 1453 1451 1449 1447 1447 1447 1446 1445 1444 1443 1443 1442 1441 1441 1441 1442 1442 1443 1443 1446 1445 1444 1445 1447 1445 1443 1444 1444 1444 1444 1447 1450 1451 1449 1450 1452 1453 1452 1451 1451 1452 1454 1456 1458 1459 1460 1461
1468 1470 1471 1474 1477 1480 1483 1485 1486 1486 1487 1487 1487 1487 1486 1486 1485 1485 1484 1483 1481 1480 1478 1477 1475 1474 1473 1471 1470 1468 1465 1464 1463 1461 1459 1457 1454 1451 1449 1446 1444 1442 1442 1442 1440 1439 1438 1437 1437 1437 1436 1436 1436 1436 1436 1436 1437 1437 1437 1437 1439 1440 1438 1438 1440 1440 1439 1438 1440 1444 1446 1446 1447 1448 1449 1450 1449 1448 1447 1449 1451 1453 1454 1456 1457